Погода в Нижне-Кубенском

Россия / Вологодская область     59°58′21″N   39°56′58″E
темп.,
°C
ветер,
м/с
пор.,
м/с
влажн.,
%
обл.,
%
осадки,
мм/ч
давл.,
гПа
погр.,
м
24 сентября, пт
пт2400:00+8юв41093100 0.0 1011682
03:00+9юв41095100 0.0 1009600
06:00+9юв41096100 0.9 1007637
09:00+8юв41094100 2.6 1006665
12:00+8юв4995100 0.9 1007635
15:00+9юв489299 0.9 1007565
18:00+9юв4109284 0.1 1008502
21:00+8юв3109384 0.6 1008476
25 сентября, сб
сб2500:00+6юв399720 0.1 1009349
03:00+5юв289828 0.1 1009208
06:00+4юв399838 0.0 1009238
09:00+7ююв498995 0.0 1009395
12:00+9ююв3986100 0.1 1008555
15:00+10ююв487973 0.1 1008610
18:00+9юв3990100 0.2 1007393
21:00+8ююв31088100 0.4 1007387
26 сентября, вс
вс2600:00+8юв3990100 0.1 1007303
03:00+8юв3988100 0.1 1007356
06:00+8вюв3894100 0.3 1008322
09:00+8вюв2791100 0.5 1010310
12:00+11в2374100 0.5 1012568
15:00+11всв2475100 1.1 1014580
18:00+9св239082 0.2 101664
21:00+6св2697100 0.3 1019134
27 сентября, пн
пн2700:00+5с279777 0.0 1020165
03:00+5с399867 0.0 1022223
06:00+6с3996100 0.0 1023377
09:00+7ссв3994100 0.0 1024487
12:00+9ссв3788100 0.0 1026725
15:00+8ссв3690100 0.1 1027712
18:00+8ссв2794100 0.0 1029400
21:00+7св2797100 0.0 1030302
28 сентября, вт
вт2800:00+6ссв2597100 0.0 1030210
03:00+6ссв2497100 0.0 1031170
06:00+6с2597100 0.0 1032173
09:00+8с2489100 0.0 1032292
12:00+9с2482100 0.0 1033363
15:00+9ссз2481100 0.1 1032300
18:00+7ссз229080 0.0 103326
21:00+8ссз2484100 0.0 103395